{"data":{"norad_id":45227,"epoch":"2026-05-24T17:57:17.841888Z","epoch_age_seconds":103639,"freshness":"FRESH","line1":"1 45227U 20012BB  26144.74812317  .00014161  00000+0  31100-3 0  9995","line2":"2 45227  53.0649 268.4835 0001798 237.7758 122.3074 15.44319163348459","mean_motion":15.44319163,"eccentricity":0.0001798,"inclination_deg":53.0649,"raan_deg":268.4835,"arg_perigee_deg":237.7758,"mean_anomaly_deg":122.3074,"bstar":0.000311,"rev_number":34845,"period_min":93.244973869433,"perigee_km":432.15460120877,"apogee_km":434.60402247451,"semimajor_km":6811.5163118416,"source":"CELESTRAK","updated_at":"2026-05-25T13:38:16.384954Z"}}